Weather reports worldwide

Advertisment
La Hague, France (7020): temperature & dewpoint: 16.09.2018 23:00:00 - 22.09.2018 23:00:00 (CEST)La Hague, France (7020): wind speed & gusts: 16.09.2018 23:00:00 - 22.09.2018 23:00:00 (CEST)La Hague, France (7020): wind direction: 16.09.2018 23:00:00 - 22.09.2018 23:00:00 (CEST)La Hague, France (7020): reduced air pressure: 16.09.2018 23:00:00 - 22.09.2018 23:00:00 (CEST)La Hague, France (7020): visibility: 16.09.2018 23:00:00 - 22.09.2018 23:00:00 (CEST)La Hague, France (7020): precipitation: 16.09.2018 23:00:00 - 22.09.2018 23:00:00 (CEST)
Date & Time tt [°C] td [°C] ff [km/h] ff [kn] fx [km/h] fx [kn] dd ppp [hPa] vv [km] rr [mm]
22.09.2018 23:00:00 17,8 17,0 47 26 63 34 WSW 1012,1 6 0,4
22.09.2018 22:00:00 17,8 17,0 50 27 66 35 SW 1011,7 - 0,2
22.09.2018 21:00:00 17,9 16,9 49 27 66 36 SW 1011,4 - 0,2
22.09.2018 20:00:00 17,9 16,9 49 27 66 36 SW 1010,7 2,0 0,2
22.09.2018 19:00:00 17,9 17,1 50 27 67 36 SW 1010,5 - 1,4
22.09.2018 18:00:00 17,1 16,3 39 21 58 32 S 1010,6 - 4,8
22.09.2018 17:00:00 13,5 12,2 23 13 43 23 SE 1012,7 2,0 2,8
22.09.2018 16:00:00 12,8 11,0 19 10 43 23 ESE 1014,5 - 3,1
22.09.2018 15:00:00 12,5 10,9 16 9 35 19 E 1016,5 - 2,6
22.09.2018 14:00:00 13,4 11,3 16 8 38 21 SSE 1018,0 7 0,6
22.09.2018 13:00:00 13,4 10,2 29 16 49 26 S 1019,6 - 1,8
22.09.2018 12:00:00 13,6 10,0 9 5 18 10 SE 1020,3 - 0,4
22.09.2018 11:00:00 14,3 8,7 11 6 24 13 SW 1020,7 20 0,0
22.09.2018 10:00:00 13,8 5,7 20 11 29 16 SSW 1020,9 - 0,4
22.09.2018 09:00:00 14,5 8,7 20 11 25 14 SW 1021,1 - 0,0
22.09.2018 08:00:00 15,0 8,0 18 10 27 15 SW 1020,9 12 0,0
22.09.2018 07:00:00 15,2 8,7 21 11 32 17 WSW 1021,2 - 0,0
22.09.2018 06:00:00 15,2 8,4 24 13 34 18 WSW 1021,4 - 0,0
22.09.2018 05:00:00 15,2 8,9 24 13 37 20 W 1021,6 14 0,0
22.09.2018 04:00:00 15,1 8,6 25 14 37 20 W 1021,7 - 0,0
22.09.2018 03:00:00 15,0 7,8 26 14 38 21 W 1021,8 - 0,0
22.09.2018 02:00:00 14,8 7,8 27 15 41 22 W 1021,7 14 0,0
22.09.2018 01:00:00 15,1 9,0 32 17 45 24 W 1021,9 - 0,0
22.09.2018 00:00:00 15,1 8,6 34 18 41 22 WSW 1021,7 - 0,0
21.09.2018 23:00:00 15,1 9,0 33 18 47 25 W 1021,0 10 0,0
21.09.2018 22:00:00 15,2 8,9 35 19 52 28 W 1020,6 - 0,0
21.09.2018 21:00:00 15,4 9,5 39 21 55 30 W 1020,1 - 0,0
21.09.2018 20:00:00 15,4 8,6 40 22 59 32 W 1019,5 14 0,0
21.09.2018 19:00:00 15,6 9,0 44 24 62 34 W 1018,7 - 0,0
21.09.2018 18:00:00 16,0 9,4 45 24 63 34 W 1018,2 - 0,0
21.09.2018 17:00:00 16,1 8,3 47 25 64 35 W 1018,0 15 0,0
21.09.2018 16:00:00 16,2 8,4 45 25 71 39 W 1017,4 - 0,0
21.09.2018 15:00:00 16,6 8,0 45 25 66 36 W 1016,7 - 0,0
21.09.2018 14:00:00 16,8 7,4 40 22 61 33 W 1016,0 15 0,0
21.09.2018 13:00:00 15,8 7,0 45 24 66 36 W 1015,4 - 0,0
21.09.2018 12:00:00 15,7 8,7 38 20 62 33 W 1014,6 - 0,0
21.09.2018 11:00:00 15,2 8,2 41 22 63 34 W 1014,0 15 0,0
21.09.2018 10:00:00 14,5 8,0 40 21 63 34 W 1013,0 - 0,0
21.09.2018 09:00:00 14,1 7,6 45 25 60 33 W 1011,7 - 0,0
21.09.2018 08:00:00 14,0 8,0 44 24 67 36 W 1010,5 - 0,0
21.09.2018 07:00:00 14,5 9,5 46 25 70 38 W 1009,0 - 0,0
21.09.2018 06:00:00 14,9 9,5 50 27 78 42 W 1007,4 - 0,0
21.09.2018 05:00:00 15,6 10,4 58 32 80 43 WSW 1005,7 1,0 0,0
21.09.2018 04:00:00 16,3 12,3 50 27 77 42 W 1005,0 - 0,0
21.09.2018 03:00:00 16,3 13,2 46 25 76 41 W 1004,4 - 1,9
21.09.2018 02:00:00 17,8 16,1 47 26 74 40 S 1001,9 1,0 2,0
21.09.2018 01:00:00 17,9 16,1 47 26 73 40 S 1003,4 - 2,2
21.09.2018 00:00:00 18,9 15,9 52 28 73 39 S 1005,2 - 0,0
20.09.2018 23:00:00 19,2 15,7 52 28 75 40 S 1006,0 8 0,0
20.09.2018 22:00:00 19,4 15,7 - - 66 35 - 1006,9 - 0,0
20.09.2018 21:00:00 19,6 15,3 45 24 60 32 S 1007,7 - 0,0
20.09.2018 20:00:00 19,5 14,9 35 19 53 29 S 1008,6 - 0,0
20.09.2018 19:00:00 19,4 14,9 30 16 47 25 S 1009,2 - -
20.09.2018 18:00:00 19,5 15,6 33 18 51 28 SSW 1010,6 - 0,0
20.09.2018 17:00:00 20,1 15,3 36 20 53 29 S 1011,1 6 -
20.09.2018 16:00:00 20,9 15,7 34 18 54 29 S 1011,6 - 0,0
20.09.2018 15:00:00 20,6 15,8 31 17 - - S 1012,5 - -
20.09.2018 14:00:00 19,8 15,4 32 17 50 27 S 1013,2 8 0,0
20.09.2018 13:00:00 19,3 15,2 35 19 47 25 S 1014,1 - 0,0
20.09.2018 12:00:00 18,9 15,4 33 18 49 27 SSW 1014,5 - 0,0
20.09.2018 11:00:00 19,1 15,2 35 19 51 28 S 1014,8 8 0,0
20.09.2018 10:00:00 18,3 15,0 35 19 48 26 S 1015,0 - 0,0
20.09.2018 09:00:00 17,9 15,0 31 17 48 26 SSW 1015,2 - 0,0
20.09.2018 08:00:00 17,6 14,7 34 19 49 27 SSW 1015,3 8 0,0
20.09.2018 07:00:00 17,6 14,7 35 19 49 27 SSW 1015,3 - 0,0
20.09.2018 06:00:00 17,7 14,8 35 19 54 29 SSW 1015,5 - 0,0
20.09.2018 05:00:00 17,9 15,2 32 17 46 25 SSW 1015,7 - 0,0
20.09.2018 04:00:00 17,9 16,1 27 15 41 22 SSW 1015,9 - 0,0
20.09.2018 03:00:00 17,9 15,7 31 17 44 24 SSW 1016,1 - 0,0
20.09.2018 02:00:00 17,9 15,5 28 15 40 21 SSW 1016,2 12 -
20.09.2018 01:00:00 17,8 15,8 25 14 34 18 SSW 1016,5 - 0,0
20.09.2018 00:00:00 17,5 15,3 19 10 35 19 SSW 1017,0 - 0,0
19.09.2018 23:00:00 17,7 14,8 26 14 37 20 SW 1017,0 12 0,0
19.09.2018 22:00:00 17,8 14,9 25 14 40 22 SW 1017,2 - 0,0
19.09.2018 21:00:00 18,0 15,3 31 17 44 24 WSW 1017,0 - 0,0
19.09.2018 20:00:00 18,5 15,7 34 18 55 30 WSW 1016,8 12 0,0
19.09.2018 19:00:00 19,3 15,6 40 22 51 28 WSW 1016,4 - -
19.09.2018 18:00:00 20,0 16,0 31 17 - - SW 1016,4 - -
19.09.2018 17:00:00 20,7 16,3 - - - - - 1016,4 12 -
19.09.2018 16:00:00 20,6 15,8 32 17 47 25 SSW 1016,5 - -
19.09.2018 15:00:00 21,1 16,7 30 16 47 26 SSW 1016,6 - -
19.09.2018 14:00:00 19,4 15,9 29 16 48 26 SSW 1016,3 12 0,0
19.09.2018 13:00:00 19,1 15,4 35 19 59 32 SSW 1016,0 - 0,0
19.09.2018 12:00:00 19,5 15,4 40 22 56 30 S 1015,6 - 0,0
19.09.2018 11:00:00 18,9 15,6 37 20 52 28 S 1015,7 12 0,0
19.09.2018 10:00:00 18,5 15,6 33 18 52 28 SSW 1015,4 - 0,0
19.09.2018 09:00:00 18,6 15,7 34 18 50 27 SSW 1014,8 - 0,0
19.09.2018 08:00:00 17,9 15,3 32 17 48 26 SSW 1014,2 12 0,0
19.09.2018 07:00:00 17,7 15,1 31 17 49 27 SSW 1014,0 - 0,0
19.09.2018 06:00:00 18,0 15,3 32 18 49 27 SSW 1014,1 - 0,0
19.09.2018 05:00:00 17,9 15,3 31 17 46 25 SSW 1014,4 12 0,0
19.09.2018 04:00:00 17,9 15,5 30 16 47 26 SSW 1014,5 - 0,0
19.09.2018 03:00:00 18,2 15,4 31 17 46 25 SSW 1014,8 - 0,0
19.09.2018 02:00:00 18,4 15,3 30 16 41 22 SSW 1014,9 12 0,0
19.09.2018 01:00:00 18,1 14,8 23 13 35 19 SSW 1014,9 - 0,0
19.09.2018 00:00:00 18,4 14,9 21 11 29 15 S 1014,6 - 0,0
18.09.2018 23:00:00 18,5 15,0 21 11 29 16 SSW 1014,8 20 0,0
18.09.2018 22:00:00 18,4 14,9 15 8 24 13 SSW 1014,8 - -
18.09.2018 21:00:00 18,8 14,1 17 9 25 14 S 1014,7 - -
18.09.2018 20:00:00 18,6 14,3 18 10 27 14 S 1014,3 14 -
18.09.2018 19:00:00 18,9 14,4 19 10 26 14 S 1014,0 - -
18.09.2018 18:00:00 19,4 15,5 20 11 34 18 SW 1014,1 - -
18.09.2018 17:00:00 19,8 14,8 24 13 - - SSW 1014,2 12 -
18.09.2018 16:00:00 20,3 15,1 29 15 - - SSW 1014,2 - 0,0
18.09.2018 15:00:00 20,2 15,0 33 18 - - SSW 1014,2 - -
18.09.2018 14:00:00 20,3 15,3 - - 49 26 - 1014,0 12 -
18.09.2018 13:00:00 19,6 15,5 33 18 48 26 SSW 1013,6 - 0,0
18.09.2018 12:00:00 18,5 14,4 34 18 48 26 SW 1013,2 - 0,0
18.09.2018 11:00:00 18,0 13,9 35 19 51 28 SW 1012,4 20 0,0
18.09.2018 10:00:00 18,2 14,3 34 18 51 28 SW 1011,4 - 0,0
18.09.2018 09:00:00 18,0 14,1 38 21 56 31 SW 1010,5 - 0,0
18.09.2018 08:00:00 18,3 14,4 41 22 68 37 SW 1009,6 14 0,0
18.09.2018 07:00:00 18,5 13,6 52 28 77 42 SW 1008,9 - 0,0
18.09.2018 06:00:00 18,5 14,8 41 22 68 37 SSW 1008,7 - 0,0
18.09.2018 05:00:00 19,0 15,7 39 21 63 34 SSW 1008,3 16 0,0
18.09.2018 04:00:00 18,9 15,8 37 20 56 31 S 1007,8 - 0,0
18.09.2018 03:00:00 18,9 15,6 35 19 53 29 S 1008,3 - 0,0
18.09.2018 02:00:00 18,8 15,5 31 17 50 27 S 1008,6 18 0,0
18.09.2018 01:00:00 18,2 15,6 28 15 42 23 S 1008,5 - 0,0
18.09.2018 00:00:00 18,6 15,5 29 16 44 24 S 1008,7 - 0,0
17.09.2018 23:00:00 19,5 14,1 25 13 46 25 SSW 1008,8 25 -
17.09.2018 22:00:00 21,8 12,6 26 14 39 21 S 1008,7 - -
17.09.2018 21:00:00 21,7 11,4 16 8 26 14 S 1009,1 - 0,0
17.09.2018 20:00:00 23,3 10,0 19 10 - - S 1009,3 16 -
17.09.2018 19:00:00 24,9 9,6 19 10 - - S 1010,0 - -
17.09.2018 18:00:00 24,8 9,1 - - - - - 1010,9 - -
17.09.2018 17:00:00 - - 16 9 - - SSW - 16 -
17.09.2018 16:00:00 24,5 9,2 24 13 - - S 1012,7 - -
17.09.2018 15:00:00 23,2 9,2 - - - - - 1013,8 - -
17.09.2018 14:00:00 - - - - - - - - - -
17.09.2018 13:00:00 - - - - - - - - - -
17.09.2018 12:00:00 - - - - - - - - - -
17.09.2018 11:00:00 - - - - - - - - - -
17.09.2018 10:00:00 - - - - - - - - - -
17.09.2018 09:00:00 - - - - - - - - - -
17.09.2018 08:00:00 15,9 14,4 8 4 13 7 SSE 1017,5 12 0,0
17.09.2018 07:00:00 14,1 13,1 9 5 10 5 S 1017,9 - 0,0
17.09.2018 06:00:00 13,8 12,4 5 3 11 6 SSE 1017,9 - 0,0
17.09.2018 05:00:00 15,5 13,7 9 5 13 7 S 1018,0 12 0,0
17.09.2018 04:00:00 15,4 13,9 8 4 12 7 S 1018,5 - 0,0
17.09.2018 03:00:00 17,1 14,6 11 6 17 9 S 1018,8 - 0,0
17.09.2018 02:00:00 17,5 15,1 12 6 24 13 SSW 1019,6 12 0,0
17.09.2018 01:00:00 17,8 15,1 22 12 29 16 SW 1020,0 - 0,0
17.09.2018 00:00:00 17,8 15,1 20 11 27 15 WSW 1020,0 - 0,0
16.09.2018 23:00:00 17,0 13,7 14 7 20 11 S 1019,9 15 0,0

tt = temperature
td = dewpoint
ff = wind speed
fx = gusts
dd = wind direction
ppp = reduced air pressure
vv = visibility
rr = precipitation

Next stations